Theta_e
319 319 318 318 318 319 319 319 320 320 321 321 321 321 322 321 320 315 307 317 318 329 327 308 308 307 304 301 300 299 293 290 292 295 297 301 319 326 329 324 325 328 326 327 324
318 318 317 318 318 319 319 319 319 320 320 321 321 321 321 321 313 308 322 329 330 332 305 306 305 305 299 298 300 297 291 293 298 298 296 299 307 320 323 321 320 322 331 332 325
318 317 317 317 318 319 319 319 319 320 320 321 321 321 321 318 312 315 338 332 329 324 307 307 305 302 296 297 296 294 294 297 301 301 301 299 301 316 320 316 318 319 327 329 326
317 317 317 316 317 318 318 318 319 319 320 320 320 321 321 314 301 312 337 332 330 312 307 306 304 300 295 297 297 300 300 301 302 300 300 299 301 305 320 322 324 324 328 329 330
317 317 316 316 316 317 318 318 318 319 319 319 320 320 314 309 309 323 339 333 313 306 306 306 301 296 296 297 301 297 299 301 302 299 298 301 301 301 314 324 327 329 333 330 332
318 317 316 316 317 317 317 318 318 318 320 320 320 320 311 304 317 327 321 313 310 305 308 306 304 303 298 298 297 300 299 299 300 299 307 299 299 302 310 323 329 331 329 329 331
317 317 316 316 316 317 317 317 317 318 321 321 321 321 312 310 317 320 315 309 310 313 308 307 305 304 301 300 302 300 297 300 299 298 298 301 298 299 309 326 328 327 325 324 325
317 316 316 316 317 317 318 318 317 318 322 323 323 318 310 322 315 314 314 311 312 311 310 309 307 302 299 301 301 298 295 291 298 300 301 300 294 302 309 326 324 325 324 322 322
317 315 315 316 317 317 317 316 317 320 323 323 317 313 311 321 313 316 312 310 310 310 309 315 305 300 302 295 293 293 290 291 296 299 301 298 294 304 324 325 322 322 321 320 319
316 315 315 316 316 316 315 315 320 319 321 322 321 310 313 310 313 315 314 313 309 308 307 304 299 296 295 293 288 291 292 293 293 297 300 296 297 303 321 321 319 319 318 317 316
316 315 315 315 315 315 310 311 306 307 312 308 311 312 312 313 315 312 314 311 310 305 297 301 295 292 296 297 298 297 295 294 298 301 299 297 297 314 318 317 315 314 313 314 314
316 315 315 314 314 314 308 307 311 308 301 311 313 313 316 313 307 310 312 305 304 298 300 297 294 300 302 301 299 298 296 295 298 302 298 296 298 309 315 314 313 312 311 311 311
314 314 314 314 312 309 308 313 316 307 300 308 311 311 308 309 307 307 309 306 302 298 298 295 299 304 302 299 299 295 295 294 296 299 297 294 292 308 313 313 313 312 312 311 309
314 314 314 311 310 309 308 314 309 311 296 303 305 307 308 307 305 312 311 307 302 298 299 297 301 302 299 300 298 293 299 299 297 293 289 294 285 300 308 307 309 308 308 308 308
313 314 313 312 306 308 312 313 310 309 289 308 303 310 307 305 306 306 311 307 302 302 299 297 299 298 298 299 302 297 300 298 297 291 288 289 285 290 306 303 305 307 308 309 309
313 313 312 310 308 313 315 310 309 295 289 301 305 303 301 303 306 306 307 307 306 301 301 299 304 303 300 303 302 302 298 296 293 288 284 287 288 291 299 303 305 308 308 310 310
313 312 309 311 304 311 311 306 294 289 304 300 301 303 300 300 302 304 303 298 296 292 292 299 299 302 305 299 300 297 291 284 283 283 284 292 292 292 305 308 308 307 309 310 310
310 309 309 313 308 310 308 299 288 300 302 305 303 302 298 300 300 303 300 297 301 298 294 293 292 300 304 298 294 293 291 285 280 281 285 294 291 296 308 310 310 310 309 310 309
307 306 309 314 313 310 302 291 293 301 303 302 302 298 298 301 301 301 298 298 301 300 294 292 294 303 304 303 300 294 290 293 288 287 284 288 296 303 307 307 308 307 308 307 307
302 305 308 314 314 308 298 294 299 306 305 303 296 299 296 298 297 296 297 302 301 303 300 297 291 300 303 302 300 296 297 288 286 281 280 286 291 293 302 303 306 307 306 306 307
303 303 311 314 312 303 294 295 303 308 306 303 301 299 300 299 300 297 298 301 304 302 301 296 292 294 298 295 294 293 291 292 289 287 282 281 286 300 300 305 305 307 308 307 308
300 296 311 312 298 297 295 301 306 306 307 305 303 303 300 301 299 299 299 301 304 303 298 298 293 289 295 301 303 298 294 291 285 285 287 286 286 302 303 302 306 307 310 309 309
296 298 310 307 294 293 299 305 306 305 305 304 302 303 303 298 294 300 301 305 305 303 300 297 291 286 289 294 298 296 299 297 291 288 286 282 285 301 302 302 303 302 304 311 310
297 296 303 303 299 297 296 300 301 306 304 304 302 302 299 297 298 297 298 303 305 304 312 303 292 289 285 289 294 293 296 296 293 286 287 288 291 296 298 300 300 299 299 308 309
299 297 302 296 298 298 297 301 300 301 303 302 299 301 298 291 294 295 301 300 303 311 301 294 288 292 294 298 297 296 296 296 292 292 289 291 291 294 295 296 298 301 307 309 310
296 299 302 299 300 299 296 296 301 303 301 300 298 302 300 295 296 295 299 298 297 298 295 296 290 293 292 298 297 295 297 297 296 296 291 290 288 295 300 305 305 306 308 309 310
306 307 302 298 297 297 297 300 303 303 304 304 302 300 299 301 303 300 301 300 299 297 295 295 292 291 286 296 294 288 293 295 295 294 292 288 289 299 301 303 303 304 308 308 310
Wind_Speed
18 16 15 16 16 15 15 14 13 13 12 11 10 10 10 11 14 3 5 9 5 1 1 4 3 3 4 3 1 3 5 3 4 4 5 8 7 4 5 11 6 3 4 6 12
17 17 17 16 16 14 14 14 13 12 11 10 9 9 9 9 3 5 10 7 3 2 1 2 4 5 2 3 3 5 4 6 4 5 4 6 5 4 6 9 6 4 1 8 17
19 18 17 17 16 14 14 13 13 12 10 8 7 7 7 5 2 6 5 7 3 3 3 0 2 2 3 2 2 1 5 5 3 3 6 5 5 2 12 4 7 11 8 8 10
19 19 17 17 16 15 14 14 13 11 9 7 6 6 6 1 2 2 7 5 3 5 2 1 4 4 4 3 2 2 6 6 6 2 4 3 4 3 2 11 10 13 8 20 13
20 19 18 17 15 14 13 13 12 11 8 5 4 3 2 1 7 2 6 4 2 2 2 2 3 1 2 4 7 3 2 2 5 3 3 2 5 6 4 4 4 17 21 18 12
19 19 17 16 14 13 12 12 10 9 7 2 1 1 1 2 3 9 7 3 4 2 1 5 6 6 1 3 1 4 3 3 4 4 2 4 2 6 5 10 18 23 22 21 21
18 17 17 16 14 13 12 11 10 9 4 0 2 3 1 8 4 9 11 6 4 5 3 3 3 5 2 7 4 2 5 7 4 2 2 3 6 3 7 21 20 21 18 22 19
20 19 17 17 15 13 12 11 10 8 2 2 3 2 5 4 3 3 4 6 8 8 4 4 4 2 2 3 9 7 6 4 7 4 4 7 9 9 10 25 19 19 17 20 19
21 19 18 17 16 14 12 11 12 6 3 2 1 2 7 10 3 8 6 4 5 4 4 3 4 1 7 5 7 7 3 4 11 8 6 5 4 16 22 25 18 16 16 17 15
22 21 18 17 16 16 17 7 2 4 2 4 4 4 4 3 4 5 4 4 5 3 5 1 6 4 5 6 3 5 3 6 5 2 7 2 1 9 14 16 16 14 14 13 15
22 22 21 18 16 13 10 3 5 3 1 6 6 4 4 3 3 1 5 5 2 3 1 3 6 2 7 7 7 3 1 5 6 6 5 2 3 13 11 12 9 9 14 15 15
24 23 24 22 16 9 0 2 5 6 8 9 13 7 11 5 3 5 3 2 1 4 3 7 4 9 8 4 2 7 6 6 4 9 6 3 6 8 8 8 7 7 9 9 7
24 24 25 27 22 2 1 7 7 2 0 10 7 5 7 7 6 8 7 2 5 4 6 7 8 4 2 3 5 4 7 4 1 5 2 2 4 7 8 10 9 8 7 8 8
24 24 22 32 4 5 5 6 7 4 5 7 3 6 4 6 3 9 8 6 3 2 1 4 2 4 5 4 4 4 1 4 5 5 2 4 4 1 7 6 8 6 6 6 7
23 23 22 11 3 4 8 9 8 7 2 3 6 5 5 7 5 1 3 4 1 4 4 4 3 1 6 3 3 4 1 3 1 3 4 6 4 3 9 2 1 3 5 6 6
25 23 17 2 2 9 8 9 6 7 6 3 7 6 5 4 2 5 2 2 2 1 4 3 3 5 5 3 4 2 6 9 7 4 3 2 5 5 5 7 4 3 3 5 6
27 28 9 4 6 3 7 6 6 3 5 5 7 7 6 6 6 7 5 3 3 4 3 6 7 4 4 5 9 10 8 4 6 5 7 5 5 3 7 12 10 10 8 7 6
30 27 6 6 5 4 5 6 2 5 6 5 5 6 7 7 5 8 6 3 3 3 3 4 5 5 4 4 4 3 6 7 5 3 6 6 1 4 10 13 11 10 8 7 6
26 4 4 7 6 4 7 3 7 4 5 7 4 4 3 4 6 4 6 4 3 2 7 3 2 4 5 2 5 3 2 5 4 2 3 2 4 4 6 8 9 9 8 8 7
5 5 6 5 8 6 6 6 5 4 4 3 4 5 4 5 3 6 5 4 4 3 3 1 3 2 4 3 3 6 4 4 4 3 3 4 5 4 11 11 9 10 10 9 8
3 5 7 2 6 6 4 7 6 6 1 3 2 3 3 3 3 1 4 5 3 4 8 4 4 6 4 2 1 4 3 5 4 5 5 2 6 5 9 12 15 12 14 13 12
3 4 4 6 3 1 3 5 3 6 1 1 2 2 2 3 2 5 3 3 2 3 4 1 5 1 6 6 3 2 3 5 6 6 1 4 8 4 11 10 13 15 14 14 10
3 5 7 6 3 4 6 7 12 8 3 2 4 3 3 2 2 4 3 2 5 4 8 4 2 3 9 8 7 5 4 2 4 3 5 5 7 3 5 7 9 10 13 16 14
2 4 6 5 1 4 3 4 5 2 4 5 3 4 5 5 5 2 4 5 5 4 7 8 4 7 8 5 3 4 7 4 4 3 5 7 7 11 5 7 9 5 5 5 6
2 6 5 4 4 5 1 2 2 1 2 3 4 2 1 1 3 4 6 3 7 4 4 6 4 3 4 3 2 2 6 9 4 7 6 7 5 9 8 5 4 9 8 8 4
2 1 4 4 4 5 1 3 2 1 2 3 5 8 8 6 2 2 1 4 2 3 2 3 2 2 2 3 5 7 9 10 9 12 5 5 1 4 6 10 12 7 7 7 5
4 4 4 4 4 2 4 3 2 8 3 5 7 7 8 3 2 2 1 3 4 7 3 5 6 4 4 3 4 7 5 5 3 6 4 5 3 1 8 9 6 6 5 5 4
Wind_Direction
339 333 328 328 321 318 315 311 313 314 313 312 315 316 318 322 309 157 249 217 190 256 293 304 310 298 358 288 290 108 63 325 286 322 293 318 69 3 33 78 49 42 71 146 134
339 337 329 326 317 314 310 309 312 310 309 310 313 307 315 331 300 254 242 201 219 265 268 25 314 10 307 265 350 87 98 217 225 254 40 42 50 106 87 94 44 74 124 121 138
346 334 327 320 313 310 311 309 309 310 308 311 304 305 312 336 313 253 169 174 186 240 224 184 257 215 173 53 246 159 193 152 251 243 61 24 52 44 117 32 188 174 173 149 102
345 334 324 315 311 315 314 310 310 310 309 305 298 306 317 224 170 270 163 181 207 241 248 305 23 11 360 322 217 280 236 199 203 330 47 39 133 56 169 197 178 175 144 58 64
344 334 324 317 314 314 312 307 308 308 307 306 301 309 293 36 253 183 162 185 219 203 248 47 3 173 250 283 334 162 289 117 114 110 102 132 314 150 201 166 108 58 59 71 54
338 333 328 321 317 316 310 302 301 300 317 318 267 298 265 3 202 152 161 159 250 186 268 147 222 222 212 280 118 299 120 33 20 355 328 139 241 93 292 82 81 73 65 60 55
337 332 334 330 326 318 312 303 299 297 331 34 199 263 29 231 205 177 163 203 202 191 245 254 165 69 343 330 301 254 17 0 323 316 289 111 346 234 182 92 89 84 76 67 57
345 340 339 337 332 320 313 301 290 277 284 201 202 256 249 240 188 162 195 295 253 207 226 281 29 62 123 287 358 16 48 27 292 85 242 83 281 288 126 108 104 95 84 73 60
344 343 341 338 333 320 308 293 281 254 187 150 217 18 285 310 185 233 171 209 250 267 271 303 45 51 10 61 7 2 253 245 300 204 141 109 275 44 117 113 117 110 102 96 84
346 342 342 336 329 322 316 253 186 292 189 180 264 336 276 230 200 232 249 209 206 264 1 63 43 46 30 68 234 273 316 278 218 229 74 86 52 66 104 113 117 112 109 106 102
344 341 341 337 326 327 350 18 12 3 131 205 229 233 295 155 88 220 242 357 300 62 173 332 59 238 250 209 201 238 6 20 14 359 97 113 40 116 102 85 92 112 130 136 129
341 341 338 333 325 316 102 329 208 206 303 243 248 247 241 169 185 258 131 148 130 231 103 20 218 236 208 184 53 33 56 355 341 4 75 32 53 102 79 78 88 77 61 68 81
337 338 337 329 326 129 186 241 281 76 330 296 226 192 213 127 216 218 139 188 218 264 254 167 227 194 123 42 79 31 81 68 100 308 49 105 359 102 68 85 83 69 82 68 72
334 333 337 326 49 323 286 277 293 118 50 274 205 259 177 154 232 210 185 163 349 248 199 161 267 131 61 68 90 76 346 54 23 63 258 80 267 135 110 59 65 42 53 67 53
330 329 333 318 276 320 256 325 312 56 355 220 213 191 171 150 160 212 181 46 127 294 52 220 127 106 87 154 97 184 45 26 322 23 45 352 73 290 115 90 106 98 75 65 72
326 325 339 111 247 242 315 316 48 47 255 230 163 172 128 193 227 170 151 90 203 315 355 238 260 162 144 93 51 318 28 18 34 76 9 221 176 215 195 177 152 132 154 145 135
323 317 317 284 240 318 356 33 49 161 294 202 174 166 174 218 180 167 178 178 160 77 336 0 350 354 107 75 17 63 57 354 355 8 223 295 71 242 123 138 159 167 183 192 162
322 314 216 224 248 34 40 49 180 261 274 283 182 168 179 188 237 190 137 156 93 125 93 124 1 356 16 111 153 74 134 151 221 226 274 334 141 204 154 163 163 167 165 169 168
319 320 276 258 192 105 72 64 214 243 324 352 356 116 223 189 150 120 164 164 113 110 129 132 165 16 74 101 101 313 14 178 125 322 73 208 68 43 159 165 164 166 172 184 191
327 333 267 263 133 74 81 232 254 268 319 35 42 36 24 320 155 144 166 358 89 65 111 176 117 341 19 37 337 147 176 42 6 198 239 287 207 219 189 186 187 188 198 206 204
4 349 268 45 77 61 164 228 289 283 53 58 112 44 34 356 14 60 45 9 85 76 65 80 90 293 45 66 348 5 35 65 115 137 164 312 280 233 179 189 194 203 205 204 202
358 325 244 45 10 134 186 207 232 256 81 76 83 32 15 33 35 68 106 108 90 105 85 17 130 233 232 270 183 144 130 113 117 276 130 151 269 235 187 184 192 211 209 212 200
330 259 299 100 189 262 271 264 255 218 68 68 64 62 16 105 76 82 120 149 95 102 161 178 40 34 344 354 4 45 12 110 122 81 201 138 263 248 244 212 220 219 200 205 200
42 324 310 31 139 183 260 274 325 45 119 106 118 59 59 29 21 15 128 193 133 111 99 92 110 155 192 183 217 321 324 311 144 124 223 212 248 286 256 239 252 330 57 117 185
176 243 221 299 320 312 20 275 2 344 61 91 46 67 247 227 352 31 27 82 26 132 71 100 140 187 236 278 7 284 296 301 291 226 173 247 233 270 282 317 12 93 84 81 49
214 182 347 283 278 267 91 283 265 350 92 73 95 43 66 86 58 91 44 49 147 256 94 13 204 145 293 303 338 306 283 268 273 275 165 142 216 23 57 68 56 58 77 82 83
275 308 119 261 299 52 235 245 237 118 38 60 132 104 73 106 139 193 172 172 147 151 143 129 131 111 251 253 337 320 255 237 207 17 140 75 304 95 67 78 85 80 86 103 109